Hourly Weather Roundup
Issued by NWS Central Illinois

Home | Current Version | Previous Version | Text Only | Print | Product List | Glossary On
Versions: 1 2 3 4 5 6 7 8 9 10 11 12 13 14 15 16 17 18 19 20 21 22 23 24 25 26 27 28 29 30 31 32 33 34 35 36 37 38 39 40 41 42 43 44 45 46 47 48 49 50
000
NZUS43 KILX 181810
HWRILX

AREA WEATHER ROUNDUP
NATIONAL WEATHER SERVICE, LINCOLN IL
1200 PM CST THU DEC 18 2014


CITY           SKY/WX    TMP DP  RH WIND       PRES   REMARKS
BLOOMINGTON    CLOUDY    27  22  81 CALM      30.26F
6HR MIN TEMP:  22; 6HR MAX TEMP:  27;

CHAMPAIGN      LGT SNOW  27  22  81 SW3       30.26F
6HR MIN TEMP:  25; 6HR MAX TEMP:  27; 6HR PCP: TRACE;

DECATUR        CLOUDY    27  22  81 CALM      30.27F
6HR MIN TEMP:  25; 6HR MAX TEMP:  27; 6HR PCP: TRACE;

FLORA          PTSUNNY   29  24  81 N3        30.29F
6HR MIN TEMP:  26; 6HR MAX TEMP:  29;

GALESBURG      CLOUDY    26  20  75 CALM      30.27F
JACKSONVILLE   MIX PCPN  29  24  80 CALM      30.28F
6HR MIN TEMP:  27; 6HR MAX TEMP:  29; 6HR PCP:  0.01;

LACON          CLOUDY    24  19  79 CALM      30.28F
6HR MIN TEMP:  13; 6HR MAX TEMP:  24;

LAWRENCEVILLE  CLOUDY    30  23  75 NW5       30.29F WCI  25
6HR MIN TEMP:  26; 6HR MAX TEMP:  31;

LITCHFIELD     CLOUDY    29  23  78 CALM      30.27F
$$


CITY           SKY/WX    TMP DP  RH WIND       PRES   REMARKS
LINCOLN        CLOUDY    29  25  85 CALM      30.29F
6HR MIN TEMP:  24; 6HR MAX TEMP:  29;

MACOMB         CLOUDY    26  22  84 CALM      30.30F
MATTOON        CLOUDY    28  20  71 N5        30.25F WCI  23
6HR MIN TEMP:  25; 6HR MAX TEMP:  29;

MT CARMEL AP   CLOUDY    32  25  74 CALM      30.28F
OLNEY-NOBLE AP CLOUDY    30  25  80 NW3       30.29F
PARIS          CLOUDY    28  23  79 CALM      30.28F
6HR MIN TEMP:  26; 6HR MAX TEMP:  28;

PEORIA         CLOUDY    28  19  69 CALM      30.28F
6HR MIN TEMP:  19; 6HR MAX TEMP:  29;

PONTIAC        CLOUDY    26  22  84 CALM      30.29F
RANTOUL        LGT SNOW  28  23  80 CALM      30.26F
6HR MIN TEMP:  22; 6HR MAX TEMP:  29;

ROBINSON       CLOUDY    29  24  79 N5        30.30F WCI  24
6HR MIN TEMP:  26; 6HR MAX TEMP:  29;

SPRINGFIELD    CLOUDY    29  24  82 CALM      30.28F
6HR MIN TEMP:  26; 6HR MAX TEMP:  29; 6HR PCP:  0.01;

TAYLORVILLE    CLOUDY    28  23  80 E3        30.27F
$$

...REGIONAL REPORTS...


CITY           SKY/WX    TMP DP  RH WIND       PRES   REMARKS
CHICAGO O`HARE CLOUDY    26  17  68 W6        30.25F WCI  19
KANKAKEE       CLOUDY    26  20  76 CALM      30.28F
MOLINE         CLOUDY    27  18  69 CALM      30.28F
MOUNT VERNON   CLOUDY    32  25  74 NE3       30.28F
PITTSFIELD     LGT SNOW  29  26  88 SE3       30.28F
QUINCY         CLOUDY    28  23  81 CALM      30.26F
ROCKFORD       CLOUDY    25  16  68 VRB6      30.29F WCI  18
$$


CITY           SKY/WX    TMP DP  RH WIND       PRES   REMARKS
BURLINGTON     CLOUDY    27  20  75 CALM      30.27F
CEDAR RAPIDS   CLOUDY    23  19  85 CALM      30.27F
DES MOINES     FLURRIES  29  18  63 S3        30.27F
KIRKSVILLE     CLOUDY    28  25  88 SE6       30.25F WCI  22
OTTUMWA        LGT SNOW  26  21  81 CALM      30.26F
ST LOUIS       FLURRIES  33  26  75 E3        30.27F
$$


CITY           SKY/WX    TMP DP  RH WIND       PRES   REMARKS
TERRE HAUTE    CLOUDY    29  21  72 N3        30.28F
EVANSVILLE     CLOUDY    33  25  72 CALM      30.28F
INDIANAPOLIS   CLOUDY    26  20  77 CALM      30.25F
LAFAYETTE      CLOUDY    25  19  78 W3        30.27F
MADISON        FLURRIES  26  20  77 NW5       30.25F WCI  20
MILWAUKEE      CLOUDY    27  21  78 W8        30.25F WCI  19
$$




USA.gov is the U.S. government's official web portal to all federal, state and local government web resources and services.